[[[{"header":{"parameterUnit":"kt","parameterCategory":2,"dx":1,"dy":1,"la1":30.253999710083008,"la2":30.299108505249023,"lo1":-89.0895004272461,"lo2":-89.04439544677734,"nx":28,"ny":28,"refTime":"2022-10-05T21:00:00:Z","depth":0,"parameterNumber":1,"parameterNumberName":"U-component_of_WINDS"},"data":[1.8811,1.8815,1.8759,1.8738,1.8684,1.8659,1.8632,1.8591,1.8544,1.8507,1.8475,1.8419,1.8349,1.8297,1.8259,1.8234,1.8222,1.8263,1.8227,1.8093,1.807,1.8049,1.8044,1.8262,1.8262,1.8374,1.8375,1.8376,1.8714,1.8661,1.8634,1.8569,1.8545,1.8471,1.8413,1.8397,1.8377,1.8319,1.8286,1.8248,1.8211,1.8125,1.808,1.8079,1.8041,1.8071,1.8069,1.8059,1.7913,1.7909,1.8102,1.8102,1.8102,1.8102,1.8102,1.8102,1.8522,1.8528,1.8456,1.8425,1.8378,1.8335,1.833,1.826,1.8232,1.8179,1.8117,1.8093,1.8024,1.7942,1.79,1.7879,1.7836,1.785,1.7854,1.7859,1.7872,1.7715,1.7868,1.7868,1.7867,1.7866,1.7866,0,1.8365,1.8318,1.8288,1.8242,1.8216,1.8175,1.8127,1.8122,1.8003,1.7985,1.7954,1.7926,1.7871,1.7835,1.778,1.7733,1.7654,1.764,1.7649,1.7679,1.7712,1.7693,1.7457,1.7636,1.7634,1.7632,1.7631,1.763,1.8167,1.818,1.8078,1.8065,1.8025,1.8006,1.7982,1.7875,1.7855,1.778,1.779,1.7752,1.7717,1.7676,1.7594,1.7553,1.7514,1.7588,1.7508,1.7535,1.7514,1.7514,1.7514,1.7607,1.761,1.7612,1.7614,0,1.8061,1.7969,1.7971,1.7869,1.7843,1.7863,1.7774,1.7775,1.7707,1.7698,1.769,1.7584,1.7555,1.7461,1.7409,1.736,1.7388,1.7351,1.741,1.7397,1.7454,1.745,1.7654,1.7674,1.7449,1.7451,1.7453,0,1.7856,1.7878,1.7739,1.7746,1.7765,1.7657,1.7679,1.7623,1.7563,1.7555,1.745,1.7445,1.7324,1.7305,1.7233,1.7239,1.7229,1.7192,1.7173,1.7202,1.7206,1.7189,1.7179,1.713,1.7129,1.7128,1.7127,0,1.7699,1.7651,1.766,1.7634,1.7528,1.7535,1.749,1.7422,1.74,1.7356,1.7341,1.7298,1.7275,1.7243,1.7151,1.71,1.7156,1.7067,1.7118,1.7121,1.7136,1.7137,1.7341,1.7126,1.7126,1.7126,1.7125,0,1.752,1.7479,1.7507,1.7415,1.7406,1.7413,1.7363,1.7347,1.7282,1.7237,1.7202,1.7121,1.7119,1.7037,1.7032,1.699,1.6973,1.6937,1.6939,1.6933,1.6844,1.6972,1.7176,1.7193,1.6927,1.6926,1.6924,0,1.7365,1.7369,1.7277,1.7306,1.7295,1.7176,1.7181,1.7128,1.7068,1.7049,1.6983,1.6963,1.6881,1.6862,1.6872,1.6803,1.6856,1.6792,1.6765,1.6766,1.6786,1.6973,1.7027,1.7142,1.6902,1.6904,1.6906,0,1.7234,1.7105,1.7117,1.7082,1.6994,1.6985,1.6991,1.6947,1.6939,1.6891,1.6893,1.6862,1.6799,1.6769,1.6698,1.6714,1.6817,1.6644,1.6641,1.6678,1.6883,1.6934,1.6954,1.6766,1.6768,1.677,1.6888,0,1.6983,1.6973,1.7001,1.6931,1.6908,1.6922,1.6822,1.6811,1.6745,1.6682,1.6684,1.6616,1.6572,1.6569,1.6506,1.6572,1.6546,1.648,1.6393,1.6517,1.6553,1.6568,1.6347,1.6344,1.6341,1.6339,0,0,1.6857,1.6842,1.6741,1.6743,1.6718,1.6595,1.6619,1.658,1.6506,1.6491,1.6441,1.639,1.6337,1.635,1.6381,1.6364,1.6366,1.6327,1.6459,1.6473,1.6485,1.6526,1.6543,1.6334,1.6333,1.6332,1.6332,0,1.6745,1.6694,1.6718,1.6673,1.6604,1.6536,1.6542,1.6451,1.6412,1.6414,1.6313,1.6302,1.6265,1.6222,1.6195,1.6323,1.6248,1.6317,1.6418,1.6436,1.6453,1.6468,1.6512,1.6529,1.6325,1.6325,1.6326,0,1.6597,1.653,1.6532,1.647,1.6423,1.6415,1.6299,1.6296,1.6288,1.6156,1.6159,1.6109,1.6043,1.6069,1.6077,1.6032,1.6146,1.6093,1.6107,1.6106,1.6118,1.6139,1.6157,1.5911,1.591,1.5909,0,0,1.6514,1.6505,1.64,1.6438,1.6415,1.6315,1.6301,1.6234,1.6178,1.6156,1.609,1.6038,1.6014,1.6002,1.5975,1.6018,1.5995,1.6046,1.6065,1.6082,1.609,1.6106,1.6127,1.5905,1.5905,1.5905,0,0,1.6474,1.6354,1.6297,1.6329,1.6279,1.6178,1.6205,1.6134,1.61,1.6087,1.5974,1.5955,1.5977,1.5932,1.5891,1.5943,1.5859,1.5866,1.5972,1.5995,1.6014,1.6025,1.5764,0,0,0,0,0,1.6308,1.6368,1.6318,1.6309,1.623,1.6206,1.6195,1.6103,1.6045,1.6068,1.6001,1.5922,1.5886,1.5847,1.584,1.5887,1.5855,1.5864,1.5872,1.6017,1.6043,1.6064,0,0,0,0,0,0,1.6303,1.6292,1.6316,1.6221,1.6202,1.6203,1.6084,1.6061,1.604,1.6025,1.5937,1.5919,1.584,1.5845,1.584,1.5886,1.5765,1.5858,1.5866,1.5873,1.6026,1.6047,1.6065,0,0,0,0,0,1.6299,1.629,1.6188,1.6219,1.6203,1.6094,1.6081,1.6061,1.6043,1.5939,1.5919,1.5976,1.5844,1.5833,1.5841,1.5891,1.5768,1.5767,1.5863,1.5869,1.5875,1.6036,0,0,0,0,0,0,1.6296,1.627,1.6183,1.6174,1.6189,1.6092,1.6074,1.6061,1.5957,1.5937,1.5972,1.5962,1.5847,1.5838,1.583,1.5898,1.5771,1.5769,1.5768,1.5868,1.5873,1.5877,0,0,0,0,0,0,1.6275,1.6264,1.6178,1.6146,1.6133,1.6091,1.6075,1.6069,1.5957,1.5995,1.5983,1.5969,1.5859,1.5842,1.5836,1.583,1.5773,1.5771,1.577,1.5769,1.5872,1.5875,0,0,0,0,0,0,1.6269,1.6259,1.6147,1.6138,1.6126,1.6025,1.6084,1.6009,1.593,1.6002,1.592,1.5916,1.5866,1.5857,1.584,1.5838,1.5832,1.5773,1.5772,1.5771,1.5771,0,0,0,0,0,0,0,1.6264,1.6346,1.6233,1.6131,1.612,1.6097,1.6094,1.6092,1.5929,1.5925,1.5921,1.5917,1.5783,1.5781,1.5779,1.5845,0,0,1.5773,1.5772,0,0,0,0,0,0,0,0,1.6348,1.6347,1.6232,1.6231,1.6229,1.6096,1.6094,1.6093,1.5928,1.5925,1.5922,1.5919,1.5782,1.5781,1.5779,0,0,0,0,0,0,0,0,0,0,0,0,0,0,0,1.6232,1.6231,0,1.6096,1.6094,1.6093,1.5928,1.5925,1.5923,1.592,1.5782,1.5781,1.5779,0,0,0,0,0,0,0,0,0,0,0,0,0,0,0,0,0,0,0,0,0,0,0,0,0,0,0,0,0,0,0,0,0,0,0,0,0,0,0,0,0,0,0,0,0,0,0,0,0,0,0,0,0,0,0,0,0,0,0,0,0,0,0,0,0,0,0,0,0]}],[{"header":{"parameterUnit":"kt","parameterCategory":2,"dx":1,"dy":1,"la1":30.253999710083008,"la2":30.299108505249023,"lo1":-89.0895004272461,"lo2":-89.04439544677734,"nx":28,"ny":28,"refTime":"2022-10-05T21:00:00:Z","depth":0,"parameterNumber":2,"parameterNumberName":"V-component_of_WINDS"},"data":[-3.534,-3.549,-3.5574,-3.5785,-3.5896,-3.6055,-3.6139,-3.6256,-3.6371,-3.6571,-3.6701,-3.6802,-3.695,-3.7126,-3.7272,-3.7314,-3.737,-3.7363,-3.7413,-3.7367,-3.7366,-3.7365,-3.7335,-3.7374,-3.7374,-3.7449,-3.7449,-3.745,-3.5303,-3.5414,-3.555,-3.5738,-3.5855,-3.5913,-3.6068,-3.6162,-3.6303,-3.6445,-3.6577,-3.676,-3.6915,-3.7069,-3.7233,-3.7307,-3.7343,-3.7345,-3.7341,-3.7364,-3.7318,-3.7285,-3.7313,-3.7313,-3.7313,-3.7313,-3.7313,-3.7313,-3.5259,-3.5345,-3.5508,-3.5656,-3.5774,-3.5899,-3.5997,-3.6117,-3.6251,-3.6431,-3.6505,-3.6666,-3.6824,-3.7062,-3.7162,-3.7291,-3.7304,-3.7332,-3.734,-3.7345,-3.734,-3.7223,-3.7323,-3.7323,-3.7323,-3.7323,-3.7323,0,-3.5253,-3.5317,-3.5452,-3.5612,-3.5725,-3.5857,-3.5993,-3.6055,-3.622,-3.6323,-3.648,-3.6585,-3.6792,-3.695,-3.7122,-3.7221,-3.7291,-3.7307,-3.7328,-3.7294,-3.7243,-3.7273,-3.7195,-3.7303,-3.7303,-3.7303,-3.7304,-3.7304,-3.5215,-3.5305,-3.5515,-3.5599,-3.5693,-3.5826,-3.5922,-3.606,-3.6156,-3.6344,-3.6413,-3.6573,-3.6708,-3.6945,-3.7085,-3.724,-3.7275,-3.7307,-3.7298,-3.7264,-3.7277,-3.7271,-3.7282,-3.7305,-3.7305,-3.7305,-3.7305,0,-3.5187,-3.5323,-3.5489,-3.5687,-3.574,-3.5828,-3.5999,-3.609,-3.6197,-3.6339,-3.638,-3.6547,-3.6698,-3.6834,-3.7034,-3.71,-3.7249,-3.7279,-3.7197,-3.721,-3.7254,-3.7248,-3.737,-3.7394,-3.7354,-3.7354,-3.7355,0,-3.5208,-3.532,-3.5517,-3.5606,-3.5736,-3.5872,-3.5997,-3.6101,-3.6239,-3.6351,-3.6452,-3.6556,-3.6712,-3.6836,-3.6934,-3.708,-3.7117,-3.7176,-3.7201,-3.7167,-3.716,-3.722,-3.7218,-3.7251,-3.725,-3.725,-3.7249,0,-3.5149,-3.5385,-3.553,-3.5606,-3.5828,-3.5893,-3.5989,-3.6143,-3.6236,-3.6378,-3.644,-3.6595,-3.668,-3.6799,-3.6922,-3.6911,-3.7103,-3.7114,-3.7164,-3.7161,-3.7199,-3.7194,-3.7269,-3.7248,-3.7248,-3.7248,-3.7247,0,-3.5186,-3.5327,-3.5516,-3.5704,-3.5761,-3.5856,-3.6018,-3.6131,-3.6286,-3.6354,-3.6467,-3.6549,-3.6686,-3.6688,-3.6879,-3.6831,-3.6909,-3.6978,-3.6984,-3.7004,-3.7002,-3.7026,-3.7083,-3.7095,-3.7024,-3.7023,-3.7021,0,-3.5083,-3.5309,-3.5427,-3.5604,-3.5727,-3.5833,-3.5942,-3.6076,-3.6175,-3.6295,-3.6405,-3.654,-3.6569,-3.663,-3.6707,-3.6826,-3.6889,-3.6821,-3.6993,-3.6998,-3.695,-3.7004,-3.6978,-3.7056,-3.6999,-3.7001,-3.7003,0,-3.5018,-3.5286,-3.5309,-3.5402,-3.5599,-3.5702,-3.5826,-3.599,-3.6063,-3.6201,-3.631,-3.6502,-3.6533,-3.6631,-3.6714,-3.6787,-3.685,-3.681,-3.6816,-3.6813,-3.6998,-3.6974,-3.6987,-3.689,-3.6893,-3.6895,-3.6985,0,-3.5047,-3.5177,-3.5245,-3.5442,-3.5542,-3.5659,-3.5802,-3.589,-3.596,-3.6061,-3.6222,-3.6365,-3.653,-3.6579,-3.6647,-3.6771,-3.6771,-3.6801,-3.6811,-3.6845,-3.6878,-3.6892,-3.675,-3.6751,-3.6752,-3.6753,0,0,-3.4914,-3.5103,-3.5226,-3.5351,-3.5443,-3.555,-3.5663,-3.5765,-3.5968,-3.603,-3.6038,-3.6327,-3.6442,-3.6622,-3.6644,-3.671,-3.6746,-3.6727,-3.6827,-3.6835,-3.6843,-3.6876,-3.6887,-3.6755,-3.6755,-3.6755,-3.6756,0,-3.4954,-3.5069,-3.5178,-3.529,-3.546,-3.5562,-3.5588,-3.5774,-3.5844,-3.6001,-3.6086,-3.6199,-3.6424,-3.6537,-3.6623,-3.6709,-3.6767,-3.6749,-3.6748,-3.6832,-3.6838,-3.6844,-3.6877,-3.6887,-3.6758,-3.6758,-3.6758,0,-3.4917,-3.5055,-3.5122,-3.5335,-3.5447,-3.557,-3.5617,-3.5743,-3.5836,-3.5944,-3.6098,-3.6196,-3.6357,-3.6507,-3.6579,-3.6588,-3.6778,-3.6742,-3.674,-3.675,-3.6838,-3.6846,-3.6852,-3.6764,-3.6764,-3.6763,0,0,-3.4932,-3.5052,-3.5241,-3.5354,-3.5419,-3.5571,-3.565,-3.5727,-3.5869,-3.5925,-3.6052,-3.6187,-3.6321,-3.6405,-3.6538,-3.6682,-3.6727,-3.6737,-3.6736,-3.6736,-3.6745,-3.6833,-3.684,-3.6761,-3.6761,-3.6761,0,0,-3.4939,-3.5162,-3.5208,-3.5357,-3.5489,-3.5682,-3.5746,-3.5806,-3.5939,-3.5941,-3.6077,-3.6119,-3.6262,-3.6354,-3.631,-3.6544,-3.6551,-3.6565,-3.6478,-3.648,-3.648,-3.6454,-3.6376,0,0,0,0,0,-3.5052,-3.5135,-3.5174,-3.522,-3.5489,-3.566,-3.5696,-3.581,-3.5814,-3.5863,-3.5979,-3.6034,-3.6359,-3.6323,-3.6367,-3.6414,-3.6734,-3.6739,-3.6744,-3.6667,-3.6667,-3.6667,0,0,0,0,0,0,-3.5071,-3.5126,-3.5172,-3.5366,-3.5428,-3.5658,-3.569,-3.5724,-3.5812,-3.582,-3.601,-3.604,-3.6141,-3.6309,-3.6346,-3.6389,-3.6364,-3.6736,-3.674,-3.6744,-3.6667,-3.6667,-3.6667,0,0,0,0,0,-3.5086,-3.5131,-3.5533,-3.5366,-3.542,-3.5593,-3.5688,-3.5717,-3.5787,-3.5965,-3.5997,-3.5865,-3.6139,-3.6178,-3.6332,-3.6369,-3.6339,-3.6352,-3.6739,-3.6742,-3.6745,-3.6667,0,0,0,0,0,0,-3.5098,-3.5159,-3.5546,-3.5567,-3.5342,-3.5582,-3.5623,-3.5709,-3.5928,-3.596,-3.5826,-3.583,-3.6138,-3.6169,-3.6199,-3.6356,-3.6318,-3.6332,-3.6341,-3.6741,-3.6744,-3.6746,0,0,0,0,0,0,-3.5136,-3.5176,-3.5557,-3.5521,-3.5538,-3.5572,-3.5608,-3.5754,-3.5929,-3.5777,-3.5787,-3.5825,-3.6093,-3.6163,-3.6187,-3.641,-3.6302,-3.6316,-3.6325,-3.6331,-3.6743,-3.6745,0,0,0,0,0,0,-3.5155,-3.5189,-3.5516,-3.5529,-3.5545,-3.5785,-3.5703,-3.5972,-3.5898,-3.5766,-3.5894,-3.5893,-3.6086,-3.6112,-3.6178,-3.6391,-3.6405,-3.6303,-3.6312,-3.6318,-3.6322,0,0,0,0,0,0,0,-3.517,-3.4912,-3.5424,-3.5537,-3.555,-3.5758,-3.5763,-3.5769,-3.5898,-3.5896,-3.5895,-3.5894,-3.6227,-3.6242,-3.6256,-3.6375,0,0,-3.6302,-3.6308,0,0,0,0,0,0,0,0,-3.49,-3.4909,-3.5424,-3.5428,-3.5433,-3.5758,-3.5763,-3.5768,-3.5897,-3.5896,-3.5895,-3.5894,-3.6231,-3.6243,-3.6255,0,0,0,0,0,0,0,0,0,0,0,0,0,0,0,-3.5425,-3.5428,0,-3.5759,-3.5763,-3.5767,-3.5897,-3.5896,-3.5895,-3.5895,-3.6234,-3.6244,-3.6254,0,0,0,0,0,0,0,0,0,0,0,0,0,0,0,0,0,0,0,0,0,0,0,0,0,0,0,0,0,0,0,0,0,0,0,0,0,0,0,0,0,0,0,0,0,0,0,0,0,0,0,0,0,0,0,0,0,0,0,0,0,0,0,0,0,0,0,0,0]}]]]